Weather History for Longville, MN

Change the Weather History Date:

Friday, September 14, 2012

  Actual Average (KPWC) Record (KPWC)
Temperature  
Mean Temperature 50 °F -  
Max Temperature 66 °F 68 °F 82 °F (2006)
Min Temperature 33 °F 46 °F 33 °F (2007)
Degree Days  
Heating Degree Days 16    
Moisture  
Dew Point 38 °F    
Average Humidity 73    
Maximum Humidity 100    
Minimum Humidity 30    
Precipitation  
Precipitation 0.00 in - - ()
Sea Level Pressure  
Sea Level Pressure 30.32 in    
Wind  
Wind Speed 0 mph (North)    
Max Wind Speed 5 mph    
Max Gust Speed -    
Visibility 9 miles    
Events Fog    
Averages and records for this station are not official NWS values.
T = Trace of Precipitation, MM = Missing Value Source: NWS Daily Summary

Daily Weather History Graph

Daily Weather History Graph

Search for Another Location

Airport:

Trip Planner

Search our weather history database for the weather conditions in past years. The results will help you decide how hot, cold, wet, or windy it might be!

Date:

Astronomy

Sep. 14, 2012 Rise Set
Actual Time 6:53 AM CDT 7:29 PM CDT
Civil Twilight 6:23 AM CDT 8:00 PM CDT
Nautical Twilight 5:46 AM CDT 8:36 PM CDT
Astronomical Twilight 5:08 AM CDT 9:14 PM CDT
Moon 5:15 AM CDT (9/14) 6:27 PM CDT (9/14)
Length of Visible Light 13h 37m
Length of Day
12h 35m
Waning Crescent, 2% of the Moon is Illuminated
Sep 14
Waning Crescent
Sep 15
New
Sep 22
First Quarter
Sep 29
Full
Oct 8
Last Quarter

Hourly Weather History & Observations

Time (CDT) Temp. Windchill Dew Point Humidity Pressure Visibility Wind Dir Wind Speed Gust Speed Precip Events Conditions
12:00 AM 44.6 °F - 41.0 °F 87% 30.31 in 10.0 mi Calm Calm - N/A   Clear
12:20 AM 44.6 °F - 41.0 °F 87% 30.32 in 10.0 mi Calm Calm - N/A   Clear
12:40 AM 42.8 °F 41.1 °F 41.0 °F 93% 30.33 in 10.0 mi NNE 3.5 mph - N/A   Clear
1:00 AM 42.8 °F - 41.0 °F 93% 30.33 in 10.0 mi Calm Calm - N/A   Clear
1:20 AM 41.0 °F - 39.2 °F 93% 30.33 in 10.0 mi Calm Calm - N/A   Clear
1:40 AM 41.0 °F - 39.2 °F 93% 30.33 in 10.0 mi Calm Calm - N/A   Clear
2:00 AM 39.2 °F - 37.4 °F 93% 30.32 in 10.0 mi Calm Calm - N/A   Clear
2:20 AM 39.2 °F - 37.4 °F 93% 30.32 in 10.0 mi Calm Calm - N/A   Clear
2:40 AM 39.2 °F - 37.4 °F 93% 30.31 in 10.0 mi Calm Calm - N/A   Clear
3:00 AM 39.2 °F - 37.4 °F 93% 30.32 in 10.0 mi Calm Calm - N/A   Clear
3:20 AM 39.2 °F - 37.4 °F 93% 30.32 in 10.0 mi Calm Calm - N/A   Clear
3:40 AM 37.4 °F - 37.4 °F 100% 30.32 in 10.0 mi Calm Calm - N/A   Clear
4:00 AM 37.4 °F - 35.6 °F 93% 30.32 in 10.0 mi Calm Calm - N/A   Clear
4:20 AM 37.4 °F - 35.6 °F 93% 30.32 in 10.0 mi Calm Calm - N/A   Clear
4:40 AM 35.6 °F - 35.6 °F 100% 30.32 in 10.0 mi Calm Calm - N/A   Clear
5:00 AM 35.6 °F - 33.8 °F 93% 30.32 in 10.0 mi Calm Calm - N/A   Clear
5:20 AM 35.6 °F - 33.8 °F 93% 30.32 in 10.0 mi Calm Calm - N/A   Clear
5:40 AM 33.8 °F - 33.8 °F 100% 30.33 in 10.0 mi Calm Calm - N/A   Clear
6:00 AM 33.8 °F - 33.8 °F 100% 30.33 in 10.0 mi Calm Calm - N/A   Clear
6:20 AM 33.8 °F - 33.8 °F 100% 30.34 in 10.0 mi Calm Calm - N/A   Scattered Clouds
6:40 AM 33.8 °F - 33.8 °F 100% 30.34 in 1.0 mi Calm Calm - N/A   Overcast
7:00 AM 33.8 °F - 33.8 °F 100% 30.34 in 7.0 mi Calm Calm - N/A   Mostly Cloudy
7:20 AM 33.8 °F - 33.8 °F 100% 30.35 in 0.2 mi Calm Calm - N/A Fog Fog
7:40 AM 33.8 °F - 33.8 °F 100% 30.35 in 1.2 mi Calm Calm - N/A   Overcast
8:00 AM 35.6 °F - 35.6 °F 100% 30.35 in 2.5 mi Calm Calm - N/A   Mostly Cloudy
8:20 AM 37.4 °F - 37.4 °F 100% 30.35 in 0.2 mi Calm Calm - N/A Fog Fog
8:40 AM 42.8 °F - 42.8 °F 100% 30.35 in 4.0 mi Calm Calm - N/A   Scattered Clouds
9:00 AM 48.2 °F - 48.2 °F 100% 30.36 in 10.0 mi Calm Calm - N/A   Clear
9:20 AM 51.8 °F - 48.2 °F 88% 30.36 in 10.0 mi Calm Calm - N/A   Clear
9:40 AM 51.8 °F - 46.4 °F 82% 30.36 in 10.0 mi Calm Calm - N/A   Clear
10:00 AM 55.4 °F - 46.4 °F 72% 30.36 in 10.0 mi Calm Calm - N/A   Clear
10:20 AM 57.2 °F - 41.0 °F 55% 30.36 in 10.0 mi Calm Calm - N/A   Clear
10:40 AM 59.0 °F - 39.2 °F 48% 30.36 in 10.0 mi North 3.5 mph - N/A   Clear
11:00 AM 59.0 °F - 35.6 °F 42% 30.37 in 10.0 mi Calm Calm - N/A   Clear
11:20 AM 60.8 °F - 37.4 °F 42% 30.36 in 10.0 mi Calm Calm - N/A   Clear
11:40 AM 60.8 °F - 37.4 °F 42% 30.36 in 10.0 mi Calm Calm - N/A   Clear
12:00 PM 62.6 °F - 37.4 °F 39% 30.36 in 10.0 mi Calm Calm - N/A   Clear
12:40 PM 62.6 °F - 35.6 °F 37% 30.35 in 10.0 mi NE 4.6 mph - N/A   Clear
1:00 PM 62.6 °F - 35.6 °F 37% 30.35 in 10.0 mi NNE 4.6 mph - N/A   Clear
1:20 PM 62.6 °F - 35.6 °F 37% 30.34 in 10.0 mi Calm Calm - N/A   Clear
1:40 PM 64.4 °F - 35.6 °F 34% 30.34 in 10.0 mi Calm Calm - N/A   Clear
2:00 PM 64.4 °F - 37.4 °F 37% 30.34 in 10.0 mi North 3.5 mph - N/A   Clear
2:20 PM 64.4 °F - 35.6 °F 34% 30.33 in 10.0 mi Calm Calm - N/A   Clear
2:40 PM 64.4 °F - 33.8 °F 32% 30.33 in 10.0 mi WNW 4.6 mph - N/A   Clear
3:00 PM 66.2 °F - 35.6 °F 32% 30.32 in 10.0 mi Calm Calm - N/A   Clear
3:20 PM 66.2 °F - 33.8 °F 30% 30.31 in 10.0 mi Calm Calm - N/A   Clear
3:40 PM 64.4 °F - 32.0 °F 30% 30.30 in 10.0 mi Calm Calm - N/A   Clear
4:00 PM 66.2 °F - 33.8 °F 30% 30.30 in 10.0 mi North 4.6 mph - N/A   Clear
4:20 PM 66.2 °F - 33.8 °F 30% 30.30 in 10.0 mi Calm Calm - N/A   Clear
4:40 PM 66.2 °F - 33.8 °F 30% 30.30 in 10.0 mi North 3.5 mph - N/A   Clear
5:00 PM 66.2 °F - 33.8 °F 30% 30.30 in 10.0 mi Calm Calm - N/A   Clear
5:20 PM 64.4 °F - 35.6 °F 34% 30.29 in 10.0 mi North 3.5 mph - N/A   Clear
5:40 PM 64.4 °F - 33.8 °F 32% 30.29 in 10.0 mi Calm Calm - N/A   Clear
6:00 PM 64.4 °F - 35.6 °F 34% 30.29 in 10.0 mi Calm Calm - N/A   Clear
6:20 PM 64.4 °F - 37.4 °F 37% 30.29 in 10.0 mi Calm Calm - N/A   Clear
6:40 PM 60.8 °F - 44.6 °F 55% 30.28 in 10.0 mi Calm Calm - N/A   Clear
7:00 PM 55.4 °F - 46.4 °F 72% 30.28 in 10.0 mi Calm Calm - N/A   Clear
7:20 PM 51.8 °F - 46.4 °F 82% 30.28 in 10.0 mi Calm Calm - N/A   Clear
7:40 PM 48.2 °F - 44.6 °F 87% 30.28 in 10.0 mi Calm Calm - N/A   Clear
8:00 PM 46.4 °F - 44.6 °F 93% 30.29 in 10.0 mi Calm Calm - N/A   Clear
8:20 PM 44.6 °F - 42.8 °F 93% 30.29 in 10.0 mi Calm Calm - N/A   Clear
8:40 PM 44.6 °F - 42.8 °F 93% 30.29 in 10.0 mi Calm Calm - N/A   Clear
9:00 PM 42.8 °F - 41.0 °F 93% 30.29 in 10.0 mi Calm Calm - N/A   Clear
9:20 PM 42.8 °F - 42.8 °F 100% 30.28 in 10.0 mi Calm Calm - N/A   Clear
9:40 PM 42.8 °F - 41.0 °F 93% 30.28 in 10.0 mi Calm Calm - N/A   Clear
10:00 PM 41.0 °F - 39.2 °F 93% 30.27 in 10.0 mi Calm Calm - N/A   Clear
10:20 PM 41.0 °F - 39.2 °F 93% 30.27 in 10.0 mi Calm Calm - N/A   Clear
11:00 PM 39.2 °F - 39.2 °F 100% 30.27 in 10.0 mi Calm Calm - N/A   Clear
11:20 PM 39.2 °F - 37.4 °F 93% 30.27 in 10.0 mi Calm Calm - N/A   Clear
11:40 PM 39.2 °F - 37.4 °F 93% 30.26 in 10.0 mi Calm Calm - N/A   Clear